Regional Weather Roundup
Issued by NWS

Home | Current Version | Previous Version | Graphics & Text | Print | Product List | Glossary On
Versions: 1 2 3 4 5 6 7 8 9 10 11 12 13 14 15 16 17 18 19 20 21 22 23 24 25 26 27 28 29 30 31 32 33 34 35 36 37 38 39 40 41 42 43 44 45 46 47 48 49 50
000
ASUS43 KLMK 061202
RWRKY
KENTUCKY REGIONAL WEATHER ROUNDUP
NATIONAL WEATHER SERVICE LOUISVILLE KY
700 AM EST SAT FEB 06 2016

NOTE "FAIR" INDICATES FEW OR NO CLOUDS BELOW 12,000 FEET
WITH NO SIGNIFICANT WEATHER AND/OR OBSTRUCTIONS TO VISIBILITY.

KYZ001>023-026-027-061>063-070>075-061300-
WESTERN AND SOUTH CENTRAL KENTUCKY

CITY           SKY/WX    TMP DP  RH WIND       PRES   REMARKS
PADUCAH        CLEAR     30  21  69 SW6       30.34R WCI  24
HENDERSON      CLEAR     27  21  80 CALM      30.34S
OWENSBORO      CLOUDY    28  25  89 CALM      30.35S
HOPKINSVILLE   MOCLDY    29  24  81 SE3       30.35R
BOWLING GREEN  CLEAR     26  21  81 CALM      30.37S
GLASGOW        NOT AVBL
$$

KYZ024-025-028>034-038-045-046-053-061300-
NORTH CENTRAL KENTUCKY

CITY           SKY/WX    TMP DP  RH WIND       PRES   REMARKS
LOUISVILLE/SDF PTCLDY    29  23  78 CALM      30.35S
LOUISVILLE/LOU CLEAR     27  22  81 CALM      30.35F
FORT KNOX      CLEAR     25  19  77 E2        30.32S
$$

KYZ035>037-039>044-047>052-055>060-089>105-061300-
NORTHEAST KENTUCKY

CITY           SKY/WX    TMP DP  RH WIND       PRES   REMARKS
LEXINGTON      PTCLDY    28  18  66 S5        30.34S WCI  23
COVINGTON      PTCLDY    25  22  88 CALM      30.34R
FRANKFORT      PTCLDY    24  18  77 CALM      30.33S
$$

KYZ054-064>069-076>088-106>120-061300-
SOUTHEAST KENTUCKY

CITY           SKY/WX    TMP DP  RH WIND       PRES   REMARKS
JACKSON        PTCLDY    29  15  56 S3        30.35S
LONDON         PTCLDY    24  19  81 CALM      30.36S
SOMERSET       NOT AVBL
MIDDLESBORO    NOT AVBL
MONTICELLO     SUNNY     22  18  85 W10       30.39R WCI  11
$$




USA.gov is the U.S. government's official web portal to all federal, state and local government web resources and services.